Location: Ladrillo (historical)
(32.8195°N, 117.2231°W)
Time: 15:55:33
(UTC+00:00)

Vanguard 3 - All Passes

Search period start: 27 February 2021 00:00
Search period end: 09 March 2021 00:00
Orbit: 508 x 3261 km, 33.3° (Epoch: 26 February)

Date Brightness Start Highest point End Pass type
(mag) Time Alt. Az. Time Alt. Az. Time Alt. Az.
27 Feb - 01:06:00 10° WSW 01:22:59 83° SSE 01:32:35 10° E daylight
27 Feb - 03:24:26 10° W 03:37:02 88° N 03:43:48 10° E visible
27 Feb - 05:41:24 10° W 05:49:14 47° SSW 05:53:58 10° SE visible
27 Feb - 19:28:06 10° SSE 19:35:59 14° SE 19:43:36 10° ESE daylight
27 Feb - 21:33:46 10° SSW 21:51:17 40° SSE 22:05:00 10° E daylight
27 Feb - 23:48:13 10° WSW 00:06:56 72° SSE 00:18:33 10° E daylight
28 Feb - 02:06:24 10° W 02:21:52 88° N 02:30:16 10° E visible
28 Feb - 04:24:28 10° W 04:35:14 74° SSW 04:41:07 10° ESE visible
28 Feb - 06:41:26 10° W 06:46:11 20° SW 06:49:42 10° S visible
28 Feb - 20:19:39 10° S 20:34:47 28° SE 20:48:18 10° E daylight
28 Feb - 22:31:16 10° SW 22:50:26 59° SSE 23:03:58 10° E daylight
01 Mar - 00:48:09 10° WSW 01:06:04 87° S 01:16:27 10° E daylight
01 Mar - 03:06:51 10° W 03:20:32 89° S 03:27:52 10° E visible
01 Mar - 05:24:17 10° W 05:32:48 43° SSW 05:37:53 10° SE visible
01 Mar - 19:08:07 10° SSE 19:18:30 17° SE 19:28:44 10° ESE daylight
01 Mar - 21:15:31 10° SSW 21:33:43 45° SSE 21:48:36 10° E daylight
01 Mar - 23:30:16 10° WSW 23:49:43 77° SSE 00:02:15 10° E daylight
02 Mar - 01:48:39 10° W 02:05:07 87° N 02:14:14 10° E visible
02 Mar - 04:07:00 10° WNW 04:18:45 69° SSW 04:25:09 10° ESE visible
02 Mar - 06:24:48 10° W 06:29:37 18° SW 06:33:13 10° S visible
02 Mar - 20:01:13 10° SSW 20:17:07 32° SE 20:31:58 10° E daylight
02 Mar - 22:13:17 10° SW 22:32:56 64° SSE 22:47:31 10° ENE daylight
03 Mar - 00:30:19 10° WSW 00:49:03 89° S 01:00:17 10° E daylight
03 Mar - 02:49:10 10° W 03:03:55 86° SSW 03:11:53 10° ESE visible
03 Mar - 05:07:03 10° W 05:16:15 39° SW 05:21:45 10° SSE visible
03 Mar - 18:49:04 10° S 19:00:54 20° SE 19:13:00 10° E daylight
03 Mar - 20:57:29 10° SW 21:16:02 50° SSE 21:32:01 10° E daylight
03 Mar - 23:12:26 10° WSW 23:32:23 81° SSE 23:45:54 10° E daylight
04 Mar - 01:30:53 10° W 01:48:17 88° N 01:58:10 10° E daylight
04 Mar - 03:49:26 10° WNW 04:02:10 64° SSW 04:09:07 10° SE visible
04 Mar - 06:08:08 10° W 06:12:58 17° SW 06:16:38 10° S visible
04 Mar - 19:43:07 10° SSW 19:59:22 37° SE 20:15:22 10° E daylight
04 Mar - 21:55:28 10° SW 22:15:20 69° SSE 22:30:57 10° ENE daylight
05 Mar - 00:12:33 10° W 00:31:56 89° N 00:44:03 10° E daylight
05 Mar - 02:31:26 10° W 02:47:12 83° SSW 02:55:51 10° ESE visible
05 Mar - 04:49:44 10° W 04:59:34 36° SW 05:05:31 10° SSE visible
05 Mar - 18:30:35 10° S 18:43:12 23° SE 18:56:44 10° E daylight
05 Mar - 20:39:42 10° SW 20:58:16 55° SSE 21:15:16 10° ENE daylight
05 Mar - 22:54:43 10° WSW 23:14:58 84° SSE 23:29:27 10° E daylight
06 Mar - 01:13:06 10° W 01:31:21 89° N 01:42:02 10° E daylight
06 Mar - 03:31:47 10° WNW 03:45:26 60° SSW 03:53:01 10° SE visible
06 Mar - 05:51:28 10° W 05:56:12 15° SW 05:59:54 10° SSW visible
06 Mar - 17:22:53 10° SE 17:27:36 11° SE 17:32:34 10° ESE daylight
06 Mar - 19:25:17 10° SSW 19:41:32 41° SE 19:58:32 10° E daylight
06 Mar - 21:37:50 10° WSW 21:57:41 74° SSE 22:14:16 10° ENE daylight
06 Mar - 23:54:50 10° W 00:14:44 88° N 00:27:45 10° E daylight
07 Mar - 02:13:38 10° W 02:30:21 79° SSW 02:39:44 10° ESE visible
07 Mar - 04:32:21 10° W 04:42:47 33° SW 04:49:12 10° SSE visible
07 Mar - 18:12:31 10° S 18:25:27 27° SE 18:40:05 10° E daylight
07 Mar - 20:22:07 10° SW 20:40:26 60° SSE 20:58:23 10° ENE daylight
07 Mar - 22:37:08 10° WSW 22:57:30 87° SSE 23:12:54 10° E daylight
08 Mar - 00:55:20 10° W 01:14:19 89° S 01:25:50 10° E daylight
08 Mar - 03:14:04 10° WNW 03:28:34 56° SSW 03:36:48 10° SE visible
08 Mar - 05:34:52 10° W 05:39:21 14° SW 05:42:57 10° SSW visible
08 Mar - 17:03:03 10° SSE 17:10:02 14° SE 17:17:47 10° ESE daylight
08 Mar - 19:07:43 10° SSW 19:23:41 45° SE 19:41:30 10° ENE daylight
08 Mar - 21:20:22 10° WSW 21:39:58 77° SSE 21:57:29 10° ENE daylight
